McAlester, OK

10:19 AM CDT on August 24, 2016 (GMT -0500)
McAlester Regional

Weather History for KMLC - November, 2012

Change the Weather History Date:

Sunday, November 25, 2012

  Actual Average Record
Temperature  
Mean Temperature 56 °F -  
Max Temperature 69 °F 59 °F 82 °F (1965)
Min Temperature 44 °F 40 °F 23 °F (1975)
Degree Days  
Heating Degree Days 8    
Growing Degree Days 6 (Base 50)    
Moisture  
Dew Point 32 °F    
Average Humidity 41    
Maximum Humidity 60    
Minimum Humidity 26    
Precipitation  
Precipitation 0.00 in - - ()
Sea Level Pressure  
Sea Level Pressure 29.93 in    
Wind  
Wind Speed 9 mph (South)    
Max Wind Speed 13 mph    
Max Gust Speed 22 mph    
Visibility 10 miles    
Events      
Averages and records for this station are not official NWS values.
T = Trace of Precipitation, MM = Missing Value Source: NWS Daily Summary

Daily Weather History Graph

Daily Weather History Graph

Search for Another Location

Airport or City:

Trip Planner

Search our weather history database for the weather conditions in past years. The results will help you decide how hot, cold, wet, or windy it might be!

Date:

Astronomy

Nov. 25, 2012 Rise Set
Actual Time 7:07 AM CST 5:12 PM CST
Civil Twilight 6:40 AM CST 5:40 PM CST
Nautical Twilight 6:09 AM CST 6:11 PM CST
Astronomical Twilight 5:38 AM CST 6:41 PM CST
Moon 3:26 PM CST (11/25) 4:26 AM CST (11/25)
Length of Visible Light 11h 00m
Length of Day
10h 05m
Waxing Gibbous, 93% of the Moon is Illuminated
Nov 25
Waxing Gibbous
Nov 28
Full
Dec 6
Last Quarter
Dec 13
New
Dec 19
First Quarter

Hourly Weather History & Observations

Time (CST) Temp. Windchill Dew Point Humidity Pressure Visibility Wind Dir Wind Speed Gust Speed Precip Events Conditions
12:53 AM 46.0 °F 41.4 °F 21.9 °F 39% 30.06 in 10.0 mi South 9.2 mph - N/A   Scattered Clouds
1:53 AM 46.0 °F 41.4 °F 23.0 °F 40% 30.04 in 10.0 mi South 9.2 mph - N/A   Mostly Cloudy
2:53 AM 46.0 °F 41.9 °F 23.0 °F 40% 30.02 in 10.0 mi South 8.1 mph 19.6 mph N/A   Mostly Cloudy
3:53 AM 45.0 °F 39.7 °F 24.1 °F 44% 30.01 in 10.0 mi South 10.4 mph - N/A   Scattered Clouds
4:53 AM 44.1 °F 40.1 °F 24.1 °F 45% 30.00 in 10.0 mi South 6.9 mph - N/A   Partly Cloudy
5:53 AM 44.6 °F 40.2 °F 24.8 °F 46% 29.99 in 10.0 mi South 8.1 mph - N/A   Partly Cloudy
6:53 AM 46.0 °F 43.1 °F 24.1 °F 42% 29.99 in 10.0 mi South 5.8 mph - N/A   Scattered Clouds
7:53 AM 48.0 °F - 25.0 °F 41% 29.98 in 10.0 mi South 6.9 mph 18.4 mph N/A   Clear
8:53 AM 52.0 °F - 27.0 °F 38% 29.99 in 10.0 mi South 10.4 mph 20.7 mph N/A   Clear
9:53 AM 55.9 °F - 28.0 °F 34% 29.99 in 10.0 mi South 11.5 mph 21.9 mph N/A   Partly Cloudy
10:53 AM 60.1 °F - 30.0 °F 32% 29.97 in 10.0 mi South 9.2 mph 20.7 mph N/A   Clear
11:53 AM 63.0 °F - 32.0 °F 31% 29.93 in 10.0 mi South 12.7 mph 19.6 mph N/A   Partly Cloudy
12:53 PM 64.9 °F - 32.0 °F 29% 29.89 in 10.0 mi South 10.4 mph - N/A   Partly Cloudy
1:53 PM 66.9 °F - 33.1 °F 28% 29.86 in 10.0 mi South 11.5 mph 17.3 mph N/A   Clear
2:53 PM 69.1 °F - 33.1 °F 26% 29.83 in 10.0 mi SSE 11.5 mph 18.4 mph N/A   Partly Cloudy
3:53 PM 69.1 °F - 35.1 °F 29% 29.83 in 10.0 mi SSE 10.4 mph 18.4 mph N/A   Clear
4:53 PM 66.9 °F - 37.0 °F 33% 29.84 in 10.0 mi South 5.8 mph - N/A   Clear
5:53 PM 63.0 °F - 39.0 °F 41% 29.86 in 10.0 mi South 4.6 mph - N/A   Clear
6:53 PM 61.0 °F - 39.0 °F 44% 29.87 in 10.0 mi SSE 3.5 mph - N/A   Clear
7:53 PM 57.9 °F - 39.9 °F 51% 29.87 in 10.0 mi ESE 6.9 mph - N/A   Clear
8:53 PM 57.0 °F - 42.1 °F 57% 29.87 in 10.0 mi SE 6.9 mph - N/A   Partly Cloudy
9:53 PM 57.0 °F - 43.0 °F 59% 29.87 in 10.0 mi ESE 6.9 mph - N/A   Clear
10:53 PM 60.1 °F - 45.0 °F 57% 29.87 in 10.0 mi South 5.8 mph - N/A   Scattered Clouds
11:53 PM 61.0 °F - 46.9 °F 60% 29.86 in 10.0 mi South 8.1 mph 16.1 mph N/A   Clear